[[{"header":{"parameterUnit":"m.s-1","parameterCategory":1,"la1":30.2991,"la2":30.254,"lo1":-89.0895,"lo2":-89.0444,"dy":0.0017,"dx":0.0017,"nx":28,"ny":28,"refTime":"2025-12-10T03:00:00:Z","depth":0,"parameterNumber":2,"parameterNumberName":"U-component_of_WINDS"},"data":[0,0,0,0,0,0,0,0,0,0,0,0,0,0,0,0,0,0,0,0,0,0,0,0,0,0,0,0,0,0,0,0,0,0,0,0,0,0,0,0,0,0,0,0,0,0,0,0,0,0,0,0,0,0,0,0,0,0,0.7893,0.7894,0,0.7955,0.7955,0.7956,0.7974,0.7974,0.7974,0.7974,0.8034,0.8035,0.8037,0,0,0,0,0,0,0,0,0,0,0,0,0,0.7788,0.779,0.7893,0.7894,0.7895,0.7955,0.7956,0.7956,0.7975,0.7974,0.7974,0.7973,0.8033,0.8035,0.8037,0,0,0,0,0,0,0,0,0,0,0,0,0,0.784,0.779,0.7893,0.7911,0.7913,0.7955,0.7956,0.7957,0.7975,0.7974,0.7974,0.7973,0.8032,0.8035,0.8038,0.8065,0,0,0.8046,0.8048,0,0,0,0,0,0,0,0,0.7837,0.7844,0.7908,0.791,0.7912,0.7957,0.794,0.7993,0.7975,0.7951,0.7974,0.7973,0.8008,0.8013,0.8025,0.8067,0.807,0.8047,0.8048,0.805,0.805,0,0,0,0,0,0,0,0.7833,0.7841,0.7917,0.7908,0.7911,0.7915,0.7922,0.795,0.7981,0.7953,0.7955,0.7962,0.8009,0.8023,0.8027,0.8071,0.8047,0.8049,0.8051,0.8052,0.8137,0.8137,0,0,0,0,0,0,0.7827,0.7838,0.7915,0.7919,0.7873,0.7917,0.7925,0.7943,0.7981,0.7987,0.7962,0.7963,0.8018,0.8024,0.8029,0.8062,0.805,0.8052,0.8054,0.8136,0.8137,0.8137,0,0,0,0,0,0,0.7825,0.7834,0.7913,0.7879,0.7889,0.792,0.7939,0.7944,0.7958,0.7988,0.7993,0.797,0.8018,0.8025,0.8056,0.8065,0.8054,0.8056,0.8136,0.8136,0.8137,0.8129,0,0,0,0,0,0,0.7822,0.7833,0.7844,0.7879,0.7891,0.7939,0.794,0.7946,0.7963,0.7964,0.7997,0.8002,0.8018,0.8051,0.8058,0.8068,0.8058,0.8135,0.8136,0.8137,0.8129,0.813,0.813,0,0,0,0,0,0.7818,0.7839,0.7845,0.7854,0.7906,0.794,0.7947,0.7966,0.7963,0.7974,0.7994,0.8001,0.8063,0.8054,0.8062,0.8073,0.8134,0.8136,0.8137,0.8128,0.813,0.813,0,0,0,0,0,0,0.7803,0.7844,0.7851,0.7884,0.7909,0.7943,0.7957,0.7966,0.7991,0.7991,0.8012,0.8019,0.8048,0.8064,0.8054,0.8101,0.8099,0.8102,0.8089,0.8091,0.8092,0.8087,0.8061,0,0,0,0,0,0.7804,0.7829,0.7863,0.7889,0.7901,0.7927,0.7943,0.7955,0.7981,0.7991,0.8013,0.8036,0.8061,0.8077,0.8101,0.8131,0.8138,0.8143,0.8144,0.8144,0.8146,0.8162,0.8164,0.8142,0.8142,0.8142,0,0,0.7806,0.7831,0.7845,0.7887,0.7907,0.7932,0.7936,0.7961,0.7979,0.7994,0.8025,0.8041,0.8069,0.8099,0.8114,0.8113,0.8154,0.8146,0.8146,0.8148,0.8164,0.8166,0.8168,0.8142,0.8142,0.8142,0,0,0.7821,0.7843,0.7867,0.7888,0.7919,0.7936,0.7941,0.7975,0.7987,0.8018,0.8029,0.805,0.8093,0.8112,0.8127,0.8149,0.8156,0.8157,0.8161,0.8176,0.8178,0.8179,0.8186,0.8189,0.8159,0.8159,0.8159,0,0.7819,0.7857,0.7878,0.7903,0.792,0.7936,0.796,0.7978,0.8015,0.8026,0.8026,0.8079,0.8099,0.8133,0.8139,0.8151,0.8157,0.8153,0.8176,0.8178,0.818,0.8187,0.8189,0.8158,0.8158,0.8158,0.8158,0,0.7852,0.7878,0.7894,0.793,0.7949,0.7973,0.7997,0.8014,0.8024,0.8041,0.8072,0.8096,0.8125,0.8135,0.8145,0.817,0.8169,0.8172,0.817,0.8181,0.8188,0.8191,0.8158,0.8158,0.8158,0.8158,0,0,0.786,0.7907,0.7913,0.7929,0.7964,0.7984,0.8009,0.8039,0.8052,0.8077,0.8097,0.8132,0.8135,0.8153,0.8165,0.8179,0.8194,0.818,0.8181,0.8181,0.8222,0.8219,0.8222,0.8199,0.82,0.82,0.8219,0,0.7879,0.7924,0.7944,0.798,0.8004,0.8019,0.804,0.8063,0.8079,0.8101,0.8119,0.8143,0.8145,0.8156,0.817,0.8189,0.8202,0.8188,0.8217,0.8218,0.8209,0.8226,0.8223,0.824,0.8222,0.8223,0.8223,0,0.7907,0.7933,0.7972,0.8004,0.8015,0.8033,0.8062,0.8083,0.8109,0.812,0.8139,0.8151,0.8176,0.8173,0.8207,0.8197,0.821,0.8221,0.8222,0.8225,0.822,0.8228,0.8246,0.8248,0.8228,0.8227,0.8227,0,0.7908,0.7952,0.7981,0.7995,0.8033,0.8046,0.8062,0.8088,0.8104,0.8129,0.8139,0.8166,0.818,0.82,0.8219,0.8215,0.8251,0.8249,0.8259,0.8259,0.8266,0.8265,0.8285,0.8275,0.8275,0.8275,0.8275,0,0.7927,0.795,0.7982,0.7999,0.8025,0.8046,0.8071,0.8088,0.8111,0.8131,0.8146,0.8164,0.8188,0.8209,0.8223,0.8249,0.8255,0.8264,0.8267,0.8262,0.8261,0.8271,0.827,0.8276,0.8276,0.8275,0.8275,0,0.7931,0.7954,0.7986,0.802,0.8029,0.8046,0.8075,0.8092,0.8109,0.8134,0.8141,0.8167,0.8193,0.8214,0.8247,0.8257,0.8283,0.8287,0.8274,0.8276,0.8285,0.8283,0.8311,0.8316,0.8303,0.8303,0.8303,0,0.7942,0.796,0.7996,0.8011,0.8027,0.8051,0.8068,0.809,0.8107,0.8138,0.8151,0.8178,0.82,0.824,0.8262,0.8287,0.8291,0.8299,0.8295,0.8289,0.8291,0.8289,0.8291,0.83,0.83,0.83,0.83,0,0.7957,0.7967,0.7992,0.802,0.804,0.8063,0.8086,0.8098,0.8123,0.8141,0.8168,0.8186,0.822,0.8246,0.8274,0.8289,0.8298,0.8301,0.8304,0.8299,0.8291,0.8295,0.8275,0.83,0.83,0.83,0.83,0.83,0.7964,0.7981,0.8009,0.8035,0.8055,0.8076,0.8094,0.8113,0.8136,0.8167,0.8178,0.8205,0.823,0.8268,0.8284,0.8305,0.8306,0.8311,0.8312,0.8313,0.8312,0.8288,0.831,0.831,0.831,0.831,0.831,0,0.798,0.7999,0.8023,0.8055,0.8076,0.8084,0.811,0.8126,0.815,0.8173,0.8196,0.8226,0.8251,0.8275,0.8301,0.8313,0.8318,0.8319,0.8318,0.8322,0.831,0.8304,0.8315,0.8315,0.8315,0.8315,0.8315,0.8315,0.799,0.8018,0.8032,0.8069,0.8088,0.8115,0.8129,0.8149,0.8167,0.8201,0.8223,0.8238,0.8261,0.8289,0.8312,0.8319,0.8327,0.8327,0.8334,0.8323,0.8322,0.8322,0.8316,0.8329,0.8329,0.8344,0.8344,0.8344]},{"header":{"parameterUnit":"m.s-1","parameterCategory":1,"la1":30.2991,"la2":30.254,"lo1":-89.0895,"lo2":-89.0444,"dy":0.0017,"dx":0.0017,"nx":28,"ny":28,"refTime":"2025-12-10T03:00:00:Z","depth":0,"parameterNumber":3,"parameterNumberName":"V-component_of_WINDS"},"data":[0,0,0,0,0,0,0,0,0,0,0,0,0,0,0,0,0,0,0,0,0,0,0,0,0,0,0,0,0,0,0,0,0,0,0,0,0,0,0,0,0,0,0,0,0,0,0,0,0,0,0,0,0,0,0,0,0,0,2.6132,2.6132,0,2.6195,2.6195,2.6196,2.6131,2.6129,2.6126,2.6124,2.6187,2.6191,2.6195,0,0,0,0,0,0,0,0,0,0,0,0,0,2.5951,2.5955,2.6131,2.6132,2.6133,2.6195,2.6196,2.6196,2.6132,2.6129,2.6126,2.6123,2.6186,2.6191,2.6196,0,0,0,0,0,0,0,0,0,0,0,0,0,2.6023,2.5956,2.6131,2.6108,2.6107,2.6194,2.6196,2.6197,2.6133,2.6129,2.6125,2.6121,2.6184,2.619,2.6196,2.6309,0,0,2.6215,2.6217,0,0,0,0,0,0,0,0,2.6019,2.603,2.6111,2.611,2.6109,2.6151,2.6155,2.6234,2.6133,2.6123,2.6124,2.612,2.6178,2.6185,2.6205,2.6312,2.6315,2.6215,2.6219,2.6221,2.6223,0,0,0,0,0,0,0,2.6014,2.6027,2.6156,2.6112,2.6111,2.6093,2.61,2.617,2.6171,2.6123,2.6119,2.6127,2.6177,2.6199,2.6206,2.6316,2.6215,2.622,2.6224,2.6226,2.6515,2.6518,0,0,0,0,0,0,2.6012,2.6023,2.6154,2.6158,2.6054,2.61,2.6107,2.6141,2.617,2.6171,2.613,2.6124,2.6191,2.6199,2.6208,2.6339,2.6221,2.6227,2.6231,2.6511,2.6515,2.652,0,0,0,0,0,0,2.6009,2.6025,2.6152,2.609,2.6104,2.6107,2.6147,2.6145,2.6167,2.6175,2.6175,2.6153,2.6188,2.6199,2.6284,2.634,2.623,2.6235,2.6506,2.6512,2.6518,2.6605,0,0,0,0,0,0,2.6004,2.6024,2.6068,2.6091,2.6108,2.6228,2.615,2.6149,2.6178,2.617,2.6196,2.6197,2.6186,2.6275,2.629,2.6347,2.624,2.6501,2.6509,2.6516,2.6597,2.6613,2.6627,0,0,0,0,0,2.5998,2.609,2.6071,2.6087,2.6163,2.6232,2.6241,2.6227,2.6183,2.6226,2.6231,2.6196,2.6332,2.6284,2.63,2.636,2.6497,2.6506,2.6515,2.659,2.661,2.6626,0,0,0,0,0,0,2.6074,2.6093,2.6071,2.6175,2.6202,2.6221,2.6275,2.6249,2.6289,2.628,2.626,2.6266,2.6355,2.6366,2.6312,2.6469,2.6407,2.642,2.6458,2.6477,2.6492,2.6487,2.6245,0,0,0,0,0,2.6103,2.6158,2.6171,2.6261,2.6276,2.6273,2.6303,2.6289,2.6316,2.6327,2.6338,2.6366,2.6414,2.6446,2.6492,2.6598,2.6601,2.6647,2.6662,2.6674,2.6685,2.6739,2.6758,2.655,2.6549,2.6549,0,0,2.6164,2.6181,2.6217,2.6277,2.6296,2.6352,2.6284,2.6346,2.6387,2.6337,2.6416,2.6426,2.6454,2.6549,2.6592,2.6561,2.6743,2.6686,2.6695,2.67,2.675,2.677,2.6787,2.6556,2.6555,2.6554,0,0,2.6302,2.6321,2.6397,2.6417,2.6447,2.6444,2.6463,2.6485,2.6489,2.6568,2.6531,2.6578,2.6663,2.6684,2.6706,2.6848,2.6817,2.6863,2.6942,2.6994,2.7011,2.7025,2.7074,2.7092,2.6874,2.6874,2.6875,0,2.6373,2.6457,2.6439,2.6503,2.6529,2.6486,2.6561,2.6581,2.6625,2.6643,2.6608,2.6711,2.6728,2.6825,2.686,2.688,2.6898,2.686,2.701,2.7024,2.7037,2.7083,2.7102,2.688,2.6879,2.6879,2.6878,0,2.6541,2.6599,2.6656,2.6698,2.6731,2.6801,2.6792,2.6826,2.6809,2.6809,2.6889,2.6907,2.6953,2.6976,2.696,2.7071,2.705,2.7013,2.6951,2.7063,2.7106,2.7123,2.6887,2.6885,2.6884,2.6883,0,0,2.6731,2.676,2.6782,2.6799,2.6827,2.6871,2.6937,2.6982,2.7011,2.7042,2.7095,2.7166,2.7131,2.7156,2.7142,2.7188,2.7296,2.7145,2.7145,2.7171,2.7416,2.7443,2.7464,2.7276,2.7279,2.7282,2.7413,0,2.6868,2.6984,2.6968,2.7078,2.7129,2.7087,2.7144,2.7167,2.7168,2.7211,2.7212,2.7262,2.7213,2.7227,2.7271,2.7274,2.7345,2.7264,2.7324,2.7326,2.7317,2.7487,2.7516,2.7639,2.743,2.7433,2.7435,0,2.7045,2.708,2.7195,2.7212,2.7233,2.7285,2.7323,2.7366,2.7389,2.7387,2.7413,2.7389,2.7453,2.739,2.7476,2.7421,2.7444,2.7449,2.7453,2.7457,2.7387,2.7494,2.7678,2.7696,2.7461,2.7459,2.7457,0,2.7169,2.7246,2.7323,2.734,2.7363,2.7399,2.741,2.743,2.7457,2.7491,2.7507,2.7548,2.757,2.7601,2.7588,2.7543,2.7676,2.7612,2.7674,2.7674,2.7703,2.7701,2.7892,2.772,2.772,2.772,2.7719,0,2.7323,2.7395,2.7379,2.7427,2.7505,2.7485,2.7562,2.7568,2.7585,2.7632,2.7598,2.7642,2.7623,2.7666,2.7656,2.7727,2.7738,2.7736,2.7732,2.7739,2.7739,2.7753,2.7743,2.7725,2.7724,2.7723,2.7722,0,2.7475,2.7468,2.755,2.7564,2.7569,2.7625,2.7636,2.768,2.7677,2.7737,2.775,2.7746,2.7794,2.7784,2.7837,2.783,2.7919,2.7905,2.7911,2.7907,2.7969,2.7963,2.8175,2.8201,2.8013,2.8015,2.8017,0,2.7574,2.7627,2.7646,2.7675,2.7688,2.7736,2.7762,2.7744,2.7773,2.7802,2.7842,2.7887,2.7922,2.8,2.8001,2.8041,2.8027,2.8098,2.8032,2.8036,2.8025,2.8022,2.8026,2.8111,2.8113,2.8115,2.8116,0,2.7749,2.7741,2.7782,2.782,2.7853,2.7882,2.7908,2.7933,2.7917,2.7951,2.7999,2.8026,2.8079,2.8123,2.8159,2.8169,2.8139,2.8137,2.8153,2.8159,2.816,2.8158,2.7945,2.8132,2.8131,2.8129,2.8129,2.8128,2.7876,2.792,2.7939,2.7984,2.8001,2.8026,2.8067,2.8068,2.8108,2.815,2.8136,2.8191,2.821,2.8255,2.8269,2.831,2.8283,2.8307,2.8313,2.8318,2.8325,2.8154,2.8317,2.8316,2.8316,2.8315,2.8315,0,2.8047,2.8056,2.8098,2.8134,2.8169,2.8138,2.8164,2.8195,2.8243,2.8264,2.8298,2.8352,2.8393,2.8397,2.8436,2.8468,2.8455,2.8479,2.8475,2.8478,2.8348,2.8329,2.8488,2.8488,2.8488,2.8488,2.8488,2.8488,2.814,2.8212,2.8207,2.8286,2.8295,2.8348,2.8365,2.8387,2.8402,2.8464,2.8498,2.85,2.8513,2.8552,2.8588,2.8588,2.8603,2.8631,2.8626,2.8504,2.8487,2.8471,2.8453,2.8635,2.8635,2.8752,2.8753,2.8754]}]]